QPF
0.00 0.00 0.00 0.00 0.00 0.00 0.00 0.00 0.00 0.00 0.00 0.00 0.00 0.00 0.00 0.00 0.00 0.00 0.00 0.00 0.00 0.00 0.00 0.00 0.00 0.00 0.00 0.00 0.00 0.00 0.00 0.00 0.00 0.00 0.00 0.00 0.01 0.01 0.01 0.01 0.00 0.00 0.00 0.00 0.00 0.00 0.00 0.00 0.01
0.00 0.00 0.00 0.00 0.00 0.00 0.00 0.00 0.00 0.00 0.00 0.00 0.00 0.00 0.00 0.00 0.00 0.00 0.00 0.00 0.00 0.00 0.00 0.00 0.00 0.00 0.00 0.00 0.00 0.00 0.00 0.00 0.00 0.00 0.00 0.00 0.01 0.01 0.01 0.01 0.01 0.01 0.01 0.01 0.01 0.01 0.00 0.01 0.01
0.00 0.00 0.00 0.00 0.00 0.00 0.00 0.00 0.00 0.00 0.00 0.00 0.00 0.00 0.00 0.00 0.00 0.00 0.00 0.00 0.00 0.00 0.00 0.00 0.00 0.00 0.00 0.00 0.00 0.00 0.00 0.00 0.00 0.00 0.00 0.01 0.00 0.01 0.01 0.01 0.01 0.02 0.01 0.01 0.01 0.01 0.01 0.01 0.01
0.00 0.00 0.00 0.00 0.00 0.00 0.00 0.00 0.00 0.00 0.00 0.00 0.00 0.00 0.00 0.00 0.00 0.00 0.00 0.00 0.00 0.00 0.00 0.00 0.00 0.00 0.00 0.00 0.00 0.00 0.00 0.00 0.00 0.00 0.00 0.01 0.01 0.00 0.00 0.01 0.01 0.02 0.02 0.01 0.00 0.00 0.00 0.00 0.00
0.00 0.00 0.00 0.00 0.00 0.00 0.00 0.00 0.00 0.00 0.00 0.00 0.00 0.00 0.00 0.00 0.00 0.00 0.00 0.00 0.00 0.00 0.00 0.00 0.00 0.00 0.00 0.00 0.00 0.00 0.00 0.00 0.00 0.00 0.00 0.01 0.01 0.00 0.00 0.00 0.01 0.01 0.01 0.01 0.00 0.00 0.00 0.00 0.00
0.00 0.00 0.00 0.00 0.00 0.00 0.00 0.00 0.00 0.00 0.00 0.00 0.00 0.00 0.00 0.00 0.00 0.00 0.00 0.00 0.00 0.00 0.00 0.00 0.00 0.00 0.00 0.00 0.00 0.00 0.00 0.00 0.00 0.00 0.00 0.01 0.01 0.01 0.00 0.00 0.00 0.00 0.00 0.00 0.00 0.00 0.00 0.00 0.00
0.00 0.00 0.00 0.00 0.00 0.00 0.00 0.00 0.00 0.00 0.00 0.00 0.00 0.00 0.00 0.00 0.00 0.00 0.00 0.00 0.00 0.00 0.00 0.00 0.00 0.00 0.00 0.00 0.00 0.00 0.00 0.00 0.00 0.00 0.00 0.00 0.01 0.01 0.00 0.00 0.00 0.00 0.00 0.00 0.00 0.00 0.00 0.00 0.00
0.00 0.00 0.00 0.00 0.00 0.00 0.00 0.00 0.00 0.00 0.00 0.00 0.00 0.00 0.00 0.00 0.00 0.00 0.00 0.00 0.00 0.00 0.00 0.00 0.00 0.00 0.00 0.00 0.00 0.01 0.01 0.00 0.00 0.00 0.00 0.00 0.00 0.00 0.00 0.00 0.00 0.00 0.01 0.00 0.00 0.00 0.00 0.00 0.00
0.00 0.00 0.00 0.00 0.00 0.00 0.00 0.00 0.00 0.00 0.00 0.00 0.00 0.00 0.00 0.00 0.00 0.00 0.00 0.00 0.00 0.00 0.00 0.00 0.00 0.00 0.00 0.00 0.00 0.01 0.01 0.01 0.01 0.00 0.00 0.00 0.00 0.00 0.00 0.00 0.00 0.00 0.00 0.01 0.01 0.00 0.00 0.00 0.00
0.00 0.00 0.00 0.00 0.00 0.00 0.00 0.00 0.00 0.00 0.00 0.00 0.00 0.00 0.00 0.00 0.00 0.00 0.00 0.00 0.00 0.00 0.00 0.00 0.00 0.00 0.00 0.00 0.00 0.01 0.01 0.02 0.02 0.01 0.01 0.01 0.00 0.00 0.00 0.00 0.00 0.00 0.01 0.01 0.01 0.00 0.00 0.00 0.00
0.00 0.00 0.00 0.00 0.00 0.00 0.00 0.00 0.00 0.00 0.00 0.00 0.00 0.00 0.00 0.00 0.00 0.00 0.00 0.00 0.00 0.00 0.00 0.00 0.00 0.00 0.00 0.00 0.00 0.00 0.01 0.02 0.03 0.02 0.01 0.02 0.02 0.01 0.00 0.00 0.00 0.00 0.01 0.01 0.01 0.00 0.00 0.00 0.00
0.00 0.00 0.00 0.00 0.00 0.00 0.00 0.00 0.00 0.00 0.00 0.00 0.00 0.00 0.00 0.00 0.00 0.00 0.00 0.00 0.00 0.00 0.00 0.00 0.00 0.00 0.00 0.00 0.00 0.00 0.00 0.01 0.02 0.03 0.03 0.03 0.03 0.02 0.01 0.00 0.00 0.01 0.01 0.01 0.00 0.00 0.00 0.00 0.00
0.00 0.00 0.00 0.00 0.00 0.00 0.00 0.00 0.00 0.00 0.00 0.00 0.00 0.00 0.00 0.00 0.00 0.00 0.00 0.00 0.00 0.00 0.00 0.00 0.00 0.00 0.00 0.00 0.00 0.00 0.00 0.00 0.01 0.01 0.02 0.02 0.02 0.02 0.02 0.02 0.01 0.01 0.01 0.01 0.00 0.00 0.00 0.00 0.00
0.00 0.00 0.00 0.00 0.00 0.00 0.00 0.00 0.00 0.00 0.00 0.00 0.00 0.00 0.00 0.00 0.00 0.00 0.00 0.00 0.00 0.00 0.00 0.00 0.00 0.00 0.00 0.00 0.00 0.00 0.00 0.00 0.00 0.00 0.01 0.01 0.01 0.01 0.01 0.01 0.01 0.00 0.00 0.00 0.00 0.00 0.00 0.00 0.00
0.00 0.00 0.00 0.00 0.00 0.00 0.00 0.00 0.00 0.00 0.00 0.00 0.00 0.00 0.00 0.00 0.00 0.00 0.00 0.00 0.00 0.00 0.00 0.00 0.00 0.00 0.00 0.00 0.00 0.00 0.00 0.00 0.00 0.00 0.00 0.00 0.00 0.00 0.00 0.00 0.00 0.00 0.00 0.00 0.00 0.00 0.00 0.00 0.00
0.00 0.00 0.00 0.00 0.00 0.00 0.00 0.00 0.00 0.00 0.00 0.00 0.00 0.00 0.00 0.00 0.00 0.00 0.00 0.00 0.00 0.00 0.00 0.00 0.00 0.00 0.00 0.00 0.00 0.00 0.00 0.00 0.00 0.00 0.00 0.00 0.00 0.00 0.00 0.00 0.00 0.00 0.00 0.00 0.01 0.01 0.01 0.01 0.01
0.00 0.00 0.00 0.00 0.00 0.00 0.00 0.00 0.00 0.00 0.00 0.00 0.00 0.00 0.00 0.00 0.00 0.00 0.00 0.00 0.00 0.00 0.00 0.00 0.00 0.00 0.00 0.00 0.00 0.00 0.00 0.00 0.00 0.00 0.00 0.00 0.00 0.00 0.00 0.00 0.00 0.00 0.00 0.01 0.01 0.01 0.01 0.01 0.01
0.00 0.00 0.00 0.00 0.00 0.00 0.00 0.00 0.00 0.00 0.00 0.00 0.00 0.00 0.00 0.00 0.00 0.00 0.00 0.00 0.00 0.00 0.00 0.00 0.00 0.00 0.00 0.00 0.00 0.00 0.00 0.00 0.00 0.00 0.00 0.00 0.00 0.00 0.00 0.00 0.00 0.00 0.00 0.01 0.01 0.01 0.01 0.01 0.01
0.00 0.00 0.00 0.00 0.00 0.00 0.00 0.00 0.00 0.00 0.00 0.00 0.00 0.00 0.00 0.00 0.00 0.00 0.00 0.00 0.00 0.00 0.00 0.00 0.00 0.00 0.00 0.00 0.00 0.00 0.00 0.00 0.00 0.00 0.00 0.00 0.00 0.00 0.00 0.00 0.00 0.00 0.00 0.00 0.01 0.01 0.01 0.01 0.01
0.00 0.00 0.00 0.00 0.00 0.00 0.00 0.00 0.00 0.00 0.00 0.00 0.00 0.00 0.00 0.00 0.00 0.00 0.00 0.00 0.00 0.00 0.00 0.00 0.00 0.00 0.00 0.00 0.00 0.00 0.00 0.00 0.00 0.00 0.00 0.00 0.00 0.00 0.00 0.00 0.00 0.00 0.00 0.00 0.00 0.00 0.00 0.01 0.01
0.00 0.00 0.00 0.00 0.00 0.00 0.00 0.00 0.00 0.00 0.00 0.00 0.00 0.00 0.00 0.00 0.00 0.00 0.00 0.00 0.00 0.00 0.00 0.00 0.00 0.00 0.00 0.00 0.00 0.00 0.00 0.00 0.00 0.00 0.00 0.00 0.00 0.00 0.00 0.00 0.00 0.00 0.00 0.00 0.00 0.00 0.00 0.00 0.00
0.00 0.00 0.00 0.00 0.00 0.00 0.00 0.00 0.00 0.00 0.00 0.00 0.00 0.00 0.00 0.00 0.00 0.00 0.00 0.00 0.00 0.00 0.00 0.00 0.00 0.00 0.00 0.00 0.00 0.00 0.00 0.00 0.00 0.00 0.00 0.00 0.00 0.00 0.00 0.00 0.00 0.00 0.00 0.00 0.00 0.00 0.00 0.00 0.00
0.00 0.00 0.00 0.00 0.00 0.00 0.00 0.00 0.00 0.00 0.00 0.00 0.00 0.00 0.00 0.00 0.00 0.00 0.00 0.00 0.00 0.00 0.00 0.00 0.00 0.00 0.00 0.00 0.00 0.00 0.00 0.00 0.00 0.00 0.00 0.00 0.00 0.00 0.00 0.00 0.00 0.01 0.01 0.01 0.01 0.00 0.00 0.00 0.00
0.00 0.00 0.00 0.00 0.00 0.00 0.00 0.00 0.00 0.00 0.00 0.00 0.00 0.00 0.00 0.00 0.00 0.00 0.00 0.00 0.00 0.00 0.00 0.00 0.00 0.00 0.00 0.00 0.00 0.00 0.00 0.00 0.00 0.00 0.00 0.00 0.00 0.00 0.01 0.01 0.01 0.01 0.01 0.01 0.01 0.01 0.01 0.00 0.00
0.00 0.00 0.00 0.00 0.00 0.00 0.00 0.00 0.00 0.00 0.00 0.00 0.00 0.00 0.00 0.00 0.00 0.00 0.00 0.00 0.00 0.00 0.00 0.00 0.00 0.00 0.00 0.00 0.00 0.00 0.00 0.00 0.00 0.00 0.00 0.00 0.00 0.01 0.01 0.02 0.02 0.03 0.03 0.03 0.02 0.02 0.02 0.01 0.01
0.00 0.00 0.00 0.00 0.00 0.00 0.00 0.00 0.00 0.00 0.00 0.00 0.00 0.00 0.00 0.00 0.00 0.00 0.00 0.00 0.00 0.00 0.00 0.00 0.00 0.00 0.00 0.00 0.00 0.00 0.00 0.00 0.00 0.00 0.00 0.00 0.00 0.00 0.01 0.02 0.03 0.04 0.05 0.04 0.03 0.02 0.02 0.02 0.01
0.00 0.00 0.00 0.00 0.00 0.00 0.00 0.00 0.00 0.00 0.00 0.00 0.00 0.00 0.00 0.00 0.00 0.00 0.00 0.00 0.00 0.00 0.00 0.00 0.00 0.00 0.00 0.00 0.00 0.00 0.00 0.00 0.00 0.00 0.00 0.00 0.00 0.01 0.02 0.03 0.05 0.06 0.06 0.06 0.04 0.03 0.02 0.01 0.01
0.00 0.00 0.00 0.00 0.00 0.00 0.00 0.00 0.00 0.00 0.00 0.00 0.00 0.00 0.00 0.00 0.00 0.00 0.00 0.00 0.00 0.00 0.00 0.00 0.00 0.00 0.00 0.00 0.00 0.00 0.00 0.00 0.00 0.00 0.00 0.00 0.01 0.01 0.02 0.04 0.07 0.08 0.08 0.07 0.06 0.04 0.02 0.01 0.00
0.00 0.00 0.00 0.00 0.00 0.00 0.00 0.00 0.00 0.00 0.00 0.00 0.00 0.00 0.00 0.00 0.00 0.00 0.00 0.00 0.00 0.00 0.00 0.00 0.00 0.00 0.00 0.00 0.00 0.00 0.00 0.00 0.00 0.00 0.00 0.01 0.02 0.02 0.03 0.04 0.05 0.06 0.08 0.08 0.06 0.05 0.03 0.01 0.00
0.00 0.00 0.00 0.00 0.00 0.00 0.00 0.00 0.00 0.00 0.00 0.00 0.00 0.00 0.00 0.00 0.00 0.00 0.00 0.00 0.00 0.00 0.00 0.00 0.00 0.01 0.00 0.00 0.00 0.00 0.00 0.00 0.00 0.00 0.01 0.02 0.04 0.05 0.06 0.07 0.07 0.07 0.07 0.06 0.06 0.05 0.03 0.02 0.01
MSLP
1012.77 1013.56 1014.50 1015.44 1016.20 1016.64 1016.71 1016.40 1015.79 1015.04 1014.30 1013.71 1013.35 1013.22 1013.28 1013.43 1013.55 1013.55 1013.38 1013.04 1012.62 1012.18 1011.84 1011.65 1011.66 1011.83 1012.10 1012.40 1012.66 1012.83 1012.91 1012.90 1012.87 1012.85 1012.88 1012.96 1013.10 1013.25 1013.38 1013.45 1013.45 1013.40 1013.32 1013.25 1013.21 1013.23 1013.31 1013.42 1013.54
1013.34 1014.27 1015.28 1016.18 1016.82 1017.07 1016.89 1016.33 1015.51 1014.58 1013.72 1013.07 1012.68 1012.56 1012.64 1012.81 1012.94 1012.94 1012.78 1012.48 1012.09 1011.73 1011.46 1011.37 1011.46 1011.71 1012.05 1012.40 1012.69 1012.88 1012.96 1012.97 1012.94 1012.92 1012.94 1013.03 1013.15 1013.27 1013.37 1013.41 1013.38 1013.31 1013.21 1013.12 1013.08 1013.09 1013.16 1013.27 1013.38
1014.05 1015.07 1016.08 1016.90 1017.37 1017.42 1017.02 1016.26 1015.27 1014.24 1013.32 1012.64 1012.25 1012.13 1012.20 1012.34 1012.44 1012.41 1012.23 1011.93 1011.58 1011.28 1011.10 1011.11 1011.30 1011.63 1012.03 1012.42 1012.74 1012.94 1013.03 1013.03 1013.00 1012.97 1012.99 1013.05 1013.15 1013.25 1013.31 1013.32 1013.27 1013.18 1013.08 1012.99 1012.95 1012.97 1013.04 1013.14 1013.25
1014.85 1015.90 1016.86 1017.55 1017.85 1017.71 1017.13 1016.24 1015.16 1014.09 1013.18 1012.53 1012.16 1012.04 1012.07 1012.16 1012.18 1012.08 1011.85 1011.53 1011.21 1010.96 1010.86 1010.95 1011.23 1011.62 1012.07 1012.48 1012.81 1013.00 1013.08 1013.07 1013.03 1013.00 1013.00 1013.04 1013.12 1013.19 1013.23 1013.22 1013.16 1013.07 1012.97 1012.90 1012.88 1012.90 1012.98 1013.07 1013.18
1015.69 1016.71 1017.55 1018.09 1018.22 1017.92 1017.23 1016.28 1015.22 1014.21 1013.37 1012.80 1012.47 1012.35 1012.35 1012.35 1012.27 1012.07 1011.77 1011.42 1011.09 1010.88 1010.84 1010.98 1011.30 1011.73 1012.17 1012.57 1012.87 1013.03 1013.09 1013.06 1013.00 1012.96 1012.96 1012.99 1013.05 1013.11 1013.14 1013.13 1013.07 1013.00 1012.92 1012.88 1012.87 1012.91 1012.99 1013.08 1013.18
1016.46 1017.38 1018.08 1018.45 1018.43 1018.02 1017.30 1016.39 1015.43 1014.56 1013.88 1013.43 1013.18 1013.08 1013.02 1012.93 1012.74 1012.44 1012.06 1011.66 1011.32 1011.12 1011.10 1011.26 1011.57 1011.96 1012.36 1012.69 1012.91 1013.02 1013.03 1012.97 1012.91 1012.87 1012.87 1012.91 1012.97 1013.03 1013.06 1013.06 1013.02 1012.96 1012.92 1012.90 1012.92 1012.97 1013.05 1013.14 1013.22
1017.05 1017.84 1018.37 1018.57 1018.44 1017.99 1017.31 1016.53 1015.77 1015.12 1014.65 1014.36 1014.22 1014.14 1014.04 1013.87 1013.58 1013.18 1012.72 1012.28 1011.92 1011.70 1011.66 1011.79 1012.04 1012.34 1012.62 1012.83 1012.94 1012.96 1012.90 1012.82 1012.75 1012.72 1012.74 1012.80 1012.87 1012.94 1012.99 1013.00 1012.97 1012.94 1012.92 1012.93 1012.97 1013.04 1013.12 1013.20 1013.25
1017.41 1018.02 1018.37 1018.44 1018.23 1017.80 1017.25 1016.68 1016.17 1015.80 1015.58 1015.48 1015.45 1015.41 1015.29 1015.05 1014.68 1014.21 1013.69 1013.21 1012.83 1012.60 1012.51 1012.56 1012.69 1012.84 1012.96 1013.01 1012.98 1012.88 1012.76 1012.64 1012.57 1012.55 1012.59 1012.68 1012.77 1012.85 1012.90 1012.91 1012.90 1012.89 1012.89 1012.91 1012.97 1013.04 1013.12 1013.18 1013.22
1017.51 1017.93 1018.12 1018.08 1017.85 1017.50 1017.13 1016.81 1016.60 1016.53 1016.57 1016.67 1016.76 1016.76 1016.63 1016.35 1015.93 1015.41 1014.87 1014.38 1013.99 1013.72 1013.58 1013.52 1013.50 1013.47 1013.39 1013.25 1013.06 1012.84 1012.63 1012.48 1012.40 1012.40 1012.46 1012.56 1012.66 1012.73 1012.78 1012.79 1012.78 1012.77 1012.78 1012.81 1012.88 1012.95 1013.02 1013.07 1013.09
1017.39 1017.63 1017.68 1017.57 1017.37 1017.16 1017.00 1016.96 1017.06 1017.28 1017.56 1017.84 1018.03 1018.08 1017.95 1017.64 1017.19 1016.67 1016.14 1015.66 1015.27 1014.98 1014.77 1014.59 1014.41 1014.19 1013.91 1013.57 1013.21 1012.87 1012.59 1012.40 1012.31 1012.31 1012.37 1012.47 1012.55 1012.60 1012.62 1012.61 1012.58 1012.56 1012.57 1012.61 1012.68 1012.75 1012.81 1012.84 1012.84
1017.15 1017.25 1017.19 1017.06 1016.92 1016.87 1016.94 1017.18 1017.56 1018.03 1018.52 1018.94 1019.20 1019.27 1019.13 1018.81 1018.37 1017.86 1017.37 1016.93 1016.56 1016.26 1015.99 1015.70 1015.37 1014.96 1014.49 1013.98 1013.48 1013.03 1012.68 1012.45 1012.34 1012.33 1012.37 1012.43 1012.47 1012.48 1012.44 1012.38 1012.33 1012.29 1012.29 1012.33 1012.40 1012.47 1012.52 1012.54 1012.52
1016.94 1016.92 1016.80 1016.68 1016.64 1016.75 1017.04 1017.52 1018.14 1018.81 1019.45 1019.94 1020.24 1020.31 1020.15 1019.82 1019.39 1018.92 1018.48 1018.09 1017.76 1017.46 1017.14 1016.77 1016.31 1015.76 1015.14 1014.49 1013.87 1013.34 1012.94 1012.67 1012.53 1012.48 1012.47 1012.47 1012.44 1012.36 1012.26 1012.14 1012.04 1011.98 1011.97 1012.01 1012.07 1012.14 1012.19 1012.19 1012.16
1016.88 1016.78 1016.64 1016.56 1016.63 1016.89 1017.38 1018.05 1018.84 1019.64 1020.35 1020.87 1021.15 1021.18 1021.00 1020.65 1020.23 1019.80 1019.41 1019.08 1018.79 1018.51 1018.17 1017.74 1017.19 1016.53 1015.81 1015.07 1014.39 1013.81 1013.37 1013.07 1012.88 1012.77 1012.69 1012.59 1012.46 1012.28 1012.08 1011.89 1011.75 1011.66 1011.64 1011.68 1011.75 1011.82 1011.86 1011.85 1011.80
1017.07 1016.94 1016.81 1016.79 1016.96 1017.36 1017.98 1018.79 1019.67 1020.53 1021.24 1021.73 1021.96 1021.93 1021.69 1021.33 1020.91 1020.52 1020.17 1019.89 1019.64 1019.36 1019.01 1018.55 1017.95 1017.24 1016.48 1015.71 1015.01 1014.41 1013.96 1013.62 1013.39 1013.20 1013.01 1012.80 1012.53 1012.24 1011.93 1011.67 1011.47 1011.36 1011.34 1011.38 1011.46 1011.54 1011.57 1011.56 1011.48
1017.56 1017.42 1017.32 1017.36 1017.61 1018.10 1018.82 1019.70 1020.62 1021.46 1022.13 1022.55 1022.69 1022.59 1022.30 1021.90 1021.48 1021.11 1020.80 1020.54 1020.31 1020.04 1019.68 1019.20 1018.59 1017.87 1017.11 1016.36 1015.67 1015.10 1014.64 1014.28 1013.99 1013.71 1013.40 1013.05 1012.65 1012.22 1011.81 1011.46 1011.21 1011.08 1011.05 1011.10 1011.19 1011.28 1011.32 1011.29 1011.20
1018.28 1018.15 1018.08 1018.18 1018.50 1019.05 1019.82 1020.71 1021.61 1022.41 1023.00 1023.33 1023.39 1023.21 1022.87 1022.44 1022.02 1021.64 1021.34 1021.10 1020.86 1020.58 1020.21 1019.72 1019.10 1018.41 1017.68 1016.97 1016.34 1015.80 1015.36 1014.98 1014.63 1014.25 1013.82 1013.32 1012.77 1012.21 1011.69 1011.26 1010.96 1010.80 1010.76 1010.82 1010.92 1011.02 1011.06 1011.04 1010.95
1019.14 1019.03 1019.00 1019.14 1019.50 1020.08 1020.86 1021.73 1022.59 1023.31 1023.82 1024.07 1024.06 1023.83 1023.45 1023.01 1022.58 1022.20 1021.89 1021.62 1021.36 1021.04 1020.64 1020.13 1019.52 1018.86 1018.18 1017.54 1016.96 1016.48 1016.05 1015.66 1015.25 1014.77 1014.22 1013.58 1012.89 1012.20 1011.57 1011.05 1010.70 1010.50 1010.46 1010.51 1010.62 1010.72 1010.78 1010.76 1010.68
1020.02 1019.92 1019.92 1020.09 1020.47 1021.07 1021.84 1022.67 1023.47 1024.13 1024.57 1024.76 1024.71 1024.46 1024.07 1023.63 1023.20 1022.82 1022.49 1022.18 1021.86 1021.49 1021.04 1020.50 1019.88 1019.24 1018.61 1018.03 1017.52 1017.08 1016.68 1016.27 1015.80 1015.24 1014.57 1013.81 1012.99 1012.17 1011.44 1010.84 1010.42 1010.18 1010.10 1010.15 1010.25 1010.36 1010.43 1010.44 1010.38
1020.79 1020.71 1020.72 1020.92 1021.32 1021.92 1022.67 1023.47 1024.23 1024.84 1025.24 1025.41 1025.35 1025.11 1024.75 1024.34 1023.92 1023.53 1023.17 1022.81 1022.42 1021.97 1021.45 1020.85 1020.22 1019.58 1018.98 1018.45 1017.99 1017.59 1017.20 1016.78 1016.27 1015.64 1014.88 1014.00 1013.07 1012.15 1011.32 1010.63 1010.14 1009.84 1009.72 1009.72 1009.81 1009.92 1010.01 1010.05 1010.03
1021.38 1021.30 1021.34 1021.56 1021.98 1022.59 1023.33 1024.12 1024.85 1025.44 1025.83 1026.01 1025.97 1025.77 1025.46 1025.10 1024.71 1024.32 1023.92 1023.50 1023.03 1022.49 1021.88 1021.23 1020.55 1019.90 1019.32 1018.81 1018.39 1018.01 1017.64 1017.21 1016.67 1015.98 1015.15 1014.19 1013.17 1012.16 1011.23 1010.46 1009.88 1009.50 1009.31 1009.27 1009.33 1009.43 1009.53 1009.62 1009.67
1021.78 1021.70 1021.75 1022.00 1022.46 1023.09 1023.85 1024.63 1025.36 1025.96 1026.36 1026.56 1026.58 1026.44 1026.19 1025.87 1025.51 1025.12 1024.69 1024.21 1023.67 1023.04 1022.35 1021.63 1020.90 1020.23 1019.64 1019.14 1018.73 1018.37 1018.01 1017.57 1017.01 1016.29 1015.40 1014.39 1013.31 1012.22 1011.21 1010.36 1009.68 1009.22 1008.95 1008.84 1008.84 1008.93 1009.05 1009.17 1009.29
1022.00 1021.93 1022.02 1022.32 1022.82 1023.50 1024.29 1025.10 1025.84 1026.44 1026.87 1027.10 1027.16 1027.07 1026.87 1026.60 1026.26 1025.87 1025.42 1024.90 1024.28 1023.59 1022.83 1022.04 1021.27 1020.57 1019.96 1019.46 1019.06 1018.70 1018.34 1017.89 1017.32 1016.58 1015.68 1014.64 1013.51 1012.36 1011.29 1010.34 1009.58 1009.01 1008.64 1008.45 1008.40 1008.46 1008.59 1008.76 1008.94
1022.15 1022.09 1022.23 1022.60 1023.17 1023.92 1024.75 1025.58 1026.34 1026.95 1027.38 1027.63 1027.70 1027.64 1027.47 1027.22 1026.90 1026.51 1026.04 1025.48 1024.83 1024.08 1023.28 1022.45 1021.65 1020.92 1020.31 1019.80 1019.39 1019.03 1018.65 1018.21 1017.63 1016.89 1015.97 1014.91 1013.76 1012.58 1011.44 1010.42 1009.56 1008.90 1008.44 1008.16 1008.04 1008.06 1008.19 1008.39 1008.63
1022.31 1022.28 1022.49 1022.93 1023.60 1024.41 1025.29 1026.16 1026.92 1027.52 1027.93 1028.15 1028.21 1028.14 1027.96 1027.70 1027.37 1026.98 1026.50 1025.93 1025.26 1024.50 1023.68 1022.85 1022.04 1021.31 1020.68 1020.17 1019.74 1019.37 1018.98 1018.52 1017.94 1017.19 1016.27 1015.21 1014.04 1012.83 1011.64 1010.56 1009.62 1008.86 1008.31 1007.95 1007.77 1007.75 1007.86 1008.08 1008.37
1022.57 1022.59 1022.87 1023.41 1024.17 1025.05 1025.98 1026.85 1027.60 1028.16 1028.51 1028.68 1028.67 1028.54 1028.32 1028.03 1027.68 1027.28 1026.80 1026.23 1025.58 1024.84 1024.05 1023.24 1022.45 1021.73 1021.11 1020.58 1020.14 1019.74 1019.32 1018.84 1018.24 1017.48 1016.55 1015.48 1014.29 1013.06 1011.84 1010.71 1009.70 1008.87 1008.24 1007.81 1007.57 1007.52 1007.62 1007.84 1008.15
1022.97 1023.06 1023.44 1024.07 1024.91 1025.85 1026.80 1027.66 1028.36 1028.85 1029.12 1029.18 1029.09 1028.87 1028.58 1028.24 1027.86 1027.44 1026.98 1026.44 1025.83 1025.14 1024.40 1023.64 1022.90 1022.20 1021.59 1021.05 1020.58 1020.14 1019.68 1019.15 1018.51 1017.72 1016.77 1015.68 1014.49 1013.24 1011.99 1010.82 1009.77 1008.89 1008.20 1007.72 1007.44 1007.36 1007.45 1007.67 1007.99
1023.54 1023.72 1024.18 1024.90 1025.80 1026.77 1027.71 1028.53 1029.16 1029.55 1029.71 1029.66 1029.45 1029.14 1028.77 1028.37 1027.97 1027.55 1027.11 1026.62 1026.07 1025.46 1024.80 1024.11 1023.41 1022.75 1022.14 1021.58 1021.07 1020.56 1020.04 1019.45 1018.74 1017.90 1016.92 1015.80 1014.59 1013.33 1012.07 1010.88 1009.81 1008.90 1008.19 1007.68 1007.39 1007.29 1007.36 1007.57 1007.89
1024.28 1024.54 1025.09 1025.87 1026.79 1027.76 1028.66 1029.40 1029.93 1030.21 1030.25 1030.09 1029.78 1029.38 1028.95 1028.51 1028.10 1027.70 1027.30 1026.87 1026.40 1025.87 1025.29 1024.67 1024.02 1023.38 1022.76 1022.17 1021.59 1021.02 1020.41 1019.72 1018.94 1018.04 1017.00 1015.85 1014.62 1013.35 1012.09 1010.90 1009.83 1008.93 1008.22 1007.72 1007.42 1007.32 1007.39 1007.59 1007.89
1025.17 1025.51 1026.11 1026.90 1027.81 1028.72 1029.54 1030.19 1030.61 1030.78 1030.71 1030.46 1030.07 1029.62 1029.16 1028.72 1028.33 1027.97 1027.62 1027.27 1026.88 1026.43 1025.92 1025.35 1024.74 1024.10 1023.46 1022.81 1022.16 1021.49 1020.78 1020.00 1019.12 1018.14 1017.06 1015.88 1014.63 1013.36 1012.12 1010.96 1009.92 1009.05 1008.37 1007.89 1007.61 1007.52 1007.58 1007.77 1008.04
1026.17 1026.56 1027.17 1027.94 1028.78 1029.60 1030.31 1030.84 1031.14 1031.21 1031.06 1030.76 1030.35 1029.90 1029.45 1029.06 1028.71 1028.41 1028.14 1027.86 1027.53 1027.15 1026.69 1026.16 1025.55 1024.90 1024.21 1023.49 1022.75 1021.98 1021.17 1020.29 1019.33 1018.28 1017.15 1015.95 1014.71 1013.46 1012.25 1011.14 1010.15 1009.33 1008.69 1008.25 1008.00 1007.92 1007.98 1008.15 1008.39
Thickness
5740 5740 5738 5727 5707 5690 5692 5705 5720 5731 5742 5752 5756 5749 5740 5736 5731 5727 5755 5765 5763 5761 5758 5756 5753 5751 5749 5747 5745 5743 5741 5740 5738 5738 5737 5737 5736 5735 5735 5735 5735 5735 5735 5735 5735 5735 5735 5735 5734
5736 5736 5727 5711 5690 5677 5691 5711 5720 5734 5747 5754 5752 5744 5739 5739 5746 5747 5754 5760 5761 5758 5754 5752 5750 5748 5746 5743 5741 5738 5736 5735 5733 5733 5732 5732 5732 5731 5731 5731 5732 5732 5732 5731 5731 5731 5731 5731 5731
5734 5731 5712 5696 5688 5684 5699 5716 5724 5735 5744 5748 5743 5741 5736 5735 5742 5745 5754 5757 5755 5753 5750 5749 5747 5745 5742 5739 5736 5733 5731 5730 5728 5728 5727 5727 5727 5727 5726 5726 5727 5728 5728 5727 5727 5726 5726 5727 5727
5726 5715 5703 5689 5690 5696 5707 5719 5727 5727 5732 5738 5739 5730 5732 5738 5743 5747 5752 5752 5749 5747 5745 5743 5742 5739 5736 5733 5730 5728 5726 5725 5724 5723 5722 5722 5722 5721 5721 5721 5722 5723 5723 5723 5722 5722 5722 5722 5722
5718 5701 5688 5678 5687 5699 5710 5718 5722 5717 5719 5725 5730 5720 5721 5734 5742 5745 5746 5747 5744 5741 5738 5736 5734 5732 5730 5728 5725 5723 5721 5719 5719 5718 5717 5717 5717 5716 5715 5715 5716 5716 5717 5717 5717 5717 5717 5717 5718
5703 5691 5674 5672 5683 5699 5707 5714 5718 5712 5714 5720 5719 5713 5714 5726 5732 5735 5738 5738 5737 5734 5732 5729 5727 5725 5724 5721 5719 5716 5715 5713 5713 5712 5712 5711 5711 5711 5710 5709 5709 5710 5710 5711 5712 5712 5712 5713 5713
5695 5683 5676 5679 5681 5690 5700 5711 5708 5707 5705 5708 5713 5705 5707 5715 5724 5730 5729 5728 5726 5724 5722 5720 5718 5716 5714 5712 5711 5709 5708 5707 5706 5706 5706 5705 5705 5705 5704 5704 5704 5704 5704 5705 5705 5706 5707 5707 5708
5698 5683 5679 5676 5681 5684 5696 5705 5706 5703 5698 5706 5706 5692 5690 5702 5716 5722 5720 5715 5712 5711 5709 5707 5706 5705 5704 5703 5702 5701 5700 5700 5699 5699 5698 5698 5698 5697 5697 5697 5697 5698 5698 5698 5699 5700 5701 5702 5702
5700 5674 5669 5680 5683 5685 5695 5696 5699 5702 5694 5690 5684 5678 5680 5693 5704 5704 5703 5700 5697 5696 5696 5695 5695 5695 5696 5696 5695 5694 5693 5693 5692 5692 5692 5691 5691 5690 5690 5690 5691 5691 5692 5693 5693 5695 5696 5697 5697
5688 5668 5680 5690 5691 5688 5691 5691 5691 5686 5676 5670 5669 5669 5676 5682 5683 5680 5678 5677 5678 5679 5682 5683 5683 5684 5686 5688 5687 5686 5686 5686 5686 5686 5686 5686 5685 5685 5684 5685 5686 5687 5687 5688 5689 5690 5691 5692 5692
5691 5680 5688 5694 5696 5695 5690 5684 5683 5677 5656 5652 5651 5652 5659 5663 5662 5659 5657 5657 5659 5662 5666 5670 5671 5673 5675 5676 5677 5676 5677 5678 5679 5680 5680 5680 5680 5679 5679 5679 5680 5682 5683 5683 5684 5684 5685 5686 5687
5693 5694 5695 5695 5698 5694 5686 5676 5663 5659 5646 5647 5647 5649 5651 5648 5643 5640 5639 5641 5644 5648 5650 5654 5657 5660 5661 5663 5664 5665 5666 5668 5669 5671 5672 5673 5672 5672 5673 5673 5674 5675 5676 5676 5677 5678 5679 5681 5682
5693 5693 5696 5695 5691 5685 5677 5665 5655 5643 5642 5643 5645 5645 5641 5636 5631 5629 5628 5629 5631 5633 5636 5640 5643 5644 5645 5648 5649 5651 5653 5655 5657 5660 5662 5663 5664 5665 5665 5666 5667 5668 5669 5669 5670 5671 5673 5674 5676
5692 5692 5691 5691 5685 5677 5666 5656 5650 5635 5635 5636 5636 5632 5628 5625 5622 5621 5619 5617 5617 5618 5621 5626 5629 5629 5631 5632 5633 5636 5638 5641 5644 5647 5650 5652 5654 5656 5657 5658 5660 5662 5663 5664 5665 5666 5667 5668 5670
5690 5685 5681 5684 5679 5670 5663 5641 5633 5629 5628 5626 5622 5619 5618 5615 5613 5609 5606 5604 5603 5604 5606 5610 5614 5614 5616 5617 5618 5620 5622 5625 5628 5632 5636 5639 5642 5644 5646 5648 5649 5652 5655 5657 5658 5659 5660 5661 5663
5680 5669 5661 5673 5677 5669 5653 5624 5624 5623 5623 5616 5609 5606 5606 5603 5600 5597 5596 5594 5593 5593 5594 5595 5597 5598 5600 5600 5601 5604 5606 5608 5610 5613 5618 5623 5627 5631 5634 5637 5639 5642 5644 5646 5647 5649 5650 5652 5653
5655 5650 5655 5662 5666 5661 5643 5619 5615 5615 5615 5605 5597 5594 5593 5591 5589 5586 5585 5582 5581 5581 5580 5581 5582 5582 5583 5584 5585 5587 5589 5590 5592 5595 5599 5604 5610 5615 5620 5624 5627 5630 5632 5634 5636 5638 5639 5641 5643
5646 5646 5647 5648 5652 5645 5626 5610 5604 5602 5599 5588 5583 5581 5580 5578 5574 5573 5571 5570 5568 5567 5567 5566 5567 5567 5567 5568 5569 5570 5571 5572 5574 5575 5579 5582 5589 5596 5602 5608 5612 5615 5618 5621 5623 5625 5627 5629 5631
5653 5647 5641 5645 5645 5632 5613 5600 5593 5589 5583 5576 5571 5567 5564 5562 5560 5559 5558 5556 5554 5553 5552 5551 5551 5551 5551 5551 5550 5551 5552 5552 5554 5556 5558 5562 5567 5575 5582 5589 5596 5599 5602 5606 5609 5611 5613 5615 5617
5647 5642 5635 5635 5635 5619 5598 5589 5584 5579 5574 5567 5560 5554 5550 5548 5546 5545 5542 5539 5536 5533 5531 5530 5528 5528 5527 5527 5527 5528 5529 5531 5533 5536 5540 5543 5548 5554 5562 5570 5577 5583 5586 5589 5592 5595 5597 5599 5601
5639 5637 5634 5629 5625 5612 5593 5581 5575 5568 5562 5554 5543 5538 5533 5532 5526 5523 5520 5515 5511 5507 5505 5504 5503 5503 5503 5502 5503 5504 5507 5508 5510 5514 5518 5523 5527 5534 5541 5549 5557 5565 5569 5572 5575 5579 5581 5582 5584
5630 5639 5634 5627 5614 5600 5598 5571 5565 5557 5548 5536 5523 5517 5512 5507 5504 5500 5495 5489 5484 5481 5479 5478 5478 5477 5477 5475 5474 5473 5474 5475 5478 5481 5488 5495 5502 5509 5517 5526 5535 5543 5550 5555 5558 5561 5564 5566 5566
5633 5635 5628 5622 5609 5600 5594 5566 5548 5547 5532 5516 5506 5500 5494 5488 5482 5476 5470 5464 5459 5455 5453 5452 5452 5450 5448 5446 5444 5443 5443 5443 5446 5450 5458 5465 5474 5482 5490 5499 5509 5518 5526 5533 5538 5541 5543 5547 5549
5629 5624 5623 5609 5598 5593 5592 5564 5528 5521 5511 5498 5489 5481 5473 5466 5460 5453 5445 5439 5434 5431 5429 5428 5426 5424 5422 5420 5418 5416 5416 5417 5419 5422 5427 5434 5443 5453 5462 5470 5481 5493 5501 5507 5514 5519 5522 5525 5529
5613 5602 5594 5589 5580 5579 5566 5537 5512 5502 5491 5480 5469 5459 5450 5442 5435 5428 5421 5415 5411 5408 5406 5404 5403 5402 5401 5399 5396 5396 5395 5395 5396 5398 5401 5406 5414 5423 5433 5441 5453 5466 5477 5483 5488 5495 5499 5503 5507
5604 5593 5576 5566 5561 5560 5553 5514 5493 5484 5474 5462 5449 5438 5429 5420 5412 5404 5397 5391 5387 5385 5383 5382 5382 5382 5381 5380 5379 5380 5378 5377 5377 5377 5378 5382 5388 5397 5406 5416 5429 5443 5454 5462 5466 5471 5477 5482 5486
5599 5585 5578 5557 5548 5537 5532 5500 5482 5470 5455 5442 5429 5419 5410 5402 5393 5384 5378 5371 5366 5363 5361 5361 5362 5363 5364 5364 5364 5365 5363 5362 5361 5361 5362 5364 5367 5374 5384 5394 5408 5423 5435 5443 5448 5452 5457 5462 5466
5594 5580 5555 5547 5535 5525 5521 5488 5459 5443 5433 5423 5411 5401 5393 5384 5375 5368 5360 5353 5348 5344 5343 5343 5343 5345 5346 5347 5347 5348 5348 5348 5348 5349 5350 5352 5355 5360 5368 5378 5390 5404 5417 5426 5432 5436 5440 5444 5448
5580 5566 5547 5527 5513 5494 5482 5463 5450 5430 5416 5402 5391 5382 5373 5365 5358 5352 5345 5337 5331 5328 5327 5327 5330 5331 5333 5334 5334 5335 5335 5336 5337 5339 5341 5343 5347 5352 5358 5366 5376 5388 5399 5409 5417 5422 5424 5428 5432
5569 5551 5532 5512 5495 5476 5451 5439 5429 5414 5400 5386 5374 5367 5358 5350 5344 5337 5330 5323 5318 5315 5314 5315 5316 5318 5319 5320 5321 5322 5323 5325 5327 5329 5331 5334 5338 5343 5348 5357 5365 5374 5384 5392 5400 5406 5410 5413 5417